Flag Weather past 2 weeks in Paris, France

Now
50 °F

Mostly cloudy.


Feels Like: 46 °F
Forecast: 43 / 52 °F
Wind: 9 mph from Northeast

Location: Villacoublay

Current Time: Nov 24, 2014 at 7:12:18 PM

Latest Report: Nov 24, 2014 at 6:30 PM


Visibility: N/A

Pressure: 30.21 "Hg

Humidity: 82%

Dew point: 45 °F

Location of ParisLocation

Historic Weather in Paris — Graph

°F

Paris temperature yesterday

Maximum temperature yesterday: 57 °F (at 2:00 PM)
Minimum temperature yesterday: 48 °F (at 7:00 AM)
Average temperature yesterday: 53 °F

Past Weeks' High & Low Weather Summary

 TemperatureHumidityPressure
High59 °F (Nov 11, 2:00 PM)100% (Nov 10, 12:00 AM)30.24 "Hg (Nov 10, 12:00 AM)
Low41 °F (Nov 10, 3:30 AM)59% (Nov 11, 3:00 PM)29.45 "Hg (Nov 16, 1:30 PM)
Average48 °F89%29.80 "Hg
* Reported Nov 9 6:00 PM — Nov 24 6:00 PM, Paris, Weather by CustomWeather, © 2014

Note: Actual official high and low records may vary slightly from our data, if they occured in-between our weather recording intervals... More about our weather records

Advertising

Paris weather history for previous 24 hours

 ConditionsComfort  
Time TempWeatherWind HumidityBarometerVisibility
6:00 PM
Nov 24
50 °FMostly cloudy.9 mph76%30.21 "HgN/A
5:30 PM50 °FPartly cloudy.8 mph76%30.21 "HgN/A
5:00 PM50 °FMore clouds than sun.9 mph76%30.21 "HgN/A
4:30 PM50 °FOvercast.7 mph82%30.21 "HgN/A
4:00 PM52 °FOvercast.9 mph77%30.21 "HgN/A
3:30 PM50 °FOvercast.12 mph82%30.21 "HgN/A
3:00 PM50 °FMostly cloudy.10 mph82%30.21 "HgN/A
2:30 PM52 °FMostly cloudy.9 mph77%30.21 "HgN/A
2:00 PM50 °FBroken clouds.10 mph82%30.21 "HgN/A
1:30 PM50 °FOvercast.10 mph82%30.24 "HgN/A
1:00 PM50 °FOvercast.9 mph82%30.24 "HgN/A
12:30 PM50 °FOvercast.10 mph82%30.24 "HgN/A
12:00 PM48 °FMore clouds than sun.9 mph87%30.24 "HgN/A
11:30 AM48 °FLow clouds.10 mph87%30.24 "HgN/A
11:00 AM48 °FMostly cloudy.10 mph87%30.24 "HgN/A
10:30 AM48 °FLow clouds.10 mph87%30.24 "HgN/A
10:00 AM48 °FLow clouds.10 mph94%30.24 "HgN/A
9:30 AM48 °FLight rain. Low clouds.10 mph94%30.21 "Hg4 mi
9:00 AM48 °FLow clouds.13 mph87%30.21 "HgN/A
8:30 AM48 °FLight rain. Low clouds.12 mph87%30.21 "HgN/A
8:00 AM48 °FLow clouds.10 mph87%30.21 "HgN/A
7:30 AM48 °FFog.10 mph94%30.18 "Hg3 mi
7:00 AM48 °FLow clouds.10 mph94%30.18 "Hg4 mi
6:30 AM48 °FLow clouds.12 mph94%30.15 "HgN/A
6:00 AM48 °FLow clouds.12 mph94%30.15 "HgN/A
5:30 AM48 °FLow clouds.8 mph94%30.15 "HgN/A
5:00 AM50 °FLow clouds.9 mph88%30.15 "HgN/A
4:30 AM50 °FLow clouds.9 mph88%30.12 "HgN/A
3:30 AM50 °FLow clouds.7 mph88%30.12 "HgN/A
3:00 AM50 °FLow clouds.7 mph88%30.12 "HgN/A
2:30 AM50 °FLow clouds.9 mph88%30.12 "HgN/A
2:00 AM50 °FLow clouds.8 mph88%30.09 "HgN/A
1:30 AM50 °FLow clouds.9 mph94%30.09 "HgN/A
12:30 AM50 °FLow clouds.8 mph94%30.09 "HgN/A
12:00 AM52 °FLow clouds.12 mph88%30.07 "HgN/A
11:30 PM
Nov 23
52 °FLow clouds.12 mph94%30.07 "HgN/A
11:00 PM54 °FFog.12 mph94%30.07 "Hg2 mi
10:30 PM55 °FMostly cloudy.10 mph94%30.04 "Hg4 mi
10:00 PM55 °FPartly cloudy.9 mph94%30.04 "HgN/A
9:30 PM55 °FClear.7 mph94%30.04 "HgN/A
9:00 PM55 °FClear.7 mph94%30.01 "HgN/A
8:30 PM55 °FPassing clouds.6 mph94%30.01 "HgN/A
8:00 PM55 °FClear.3 mph88%30.01 "HgN/A
7:30 PM54 °FClear.2 mph94%29.98 "HgN/A
7:00 PM54 °FClear.2 mph94%29.98 "HgN/A
Weather by CustomWeather, © 2014

See weather overviewHow to use our weather pages